Wind_Speed
13 13 13 12 12 12 11 11 10 10 10 10 10 8 7 6 5 4 5 5 6 7 9 10 11 12 13 14 16 17 18 18 19 19 19 18 18 18 18 18 18 18 17 16
13 14 14 13 12 12 12 12 11 11 10 11 10 9 8 7 6 6 6 6 7 8 9 10 11 12 13 14 15 16 17 18 18 18 18 18 18 18 18 18 18 17 17 16
14 15 15 12 12 14 13 12 12 12 11 12 11 11 10 9 8 7 7 7 8 8 9 10 11 12 13 14 15 16 17 18 18 17 17 17 18 17 17 17 17 17 16 15
15 15 15 12 14 14 14 13 13 13 13 13 13 12 11 10 10 9 9 8 9 9 10 10 11 12 13 14 15 16 17 17 18 18 17 18 18 17 17 17 16 16 16 15
16 16 14 13 14 15 14 13 14 14 14 14 14 13 13 12 11 11 10 10 10 10 10 11 11 12 13 14 15 16 17 17 18 18 18 18 18 18 17 17 16 16 16 15
18 17 15 14 16 16 15 14 15 16 15 15 15 14 14 14 13 13 12 12 11 11 11 12 12 13 13 14 15 16 17 18 18 18 19 19 19 18 17 17 16 16 16 15
20 19 16 16 18 17 17 16 18 17 17 17 16 16 16 15 15 15 14 13 13 13 13 13 13 14 14 15 16 17 17 18 19 19 19 19 19 19 18 17 17 17 16 16
22 21 18 19 19 20 20 20 20 19 19 19 19 19 18 17 17 16 16 16 15 15 15 15 15 15 16 16 17 17 18 19 19 20 20 20 21 20 19 18 17 17 17 17
24 23 22 22 23 22 22 22 22 22 22 22 21 21 21 20 19 19 18 18 17 17 16 16 16 17 17 18 18 19 19 20 21 21 21 21 22 22 21 19 18 18 18 18
27 25 25 25 26 26 26 26 25 25 25 24 24 23 23 22 22 21 20 20 19 19 18 18 18 19 19 19 20 20 21 21 22 22 22 23 23 23 22 21 20 20 20 19
32 29 30 29 29 29 29 29 28 28 28 27 26 26 25 25 24 23 23 22 22 21 21 21 20 21 21 21 21 22 22 23 23 23 23 24 24 24 23 23 22 22 21 21
36 34 35 33 33 33 33 32 31 31 30 29 28 28 27 27 26 26 25 25 24 24 23 23 23 23 23 23 23 23 24 24 24 24 25 25 25 25 24 24 23 23 23 22
41 39 39 37 36 36 36 35 34 34 33 32 31 31 30 30 29 29 28 27 27 26 26 25 25 25 25 25 25 25 25 26 26 26 26 26 26 26 26 25 25 25 24 24
44 44 43 41 40 39 39 38 37 36 35 35 34 33 33 32 32 32 31 30 29 29 28 28 28 27 27 27 27 27 27 27 27 28 28 28 28 28 28 28 27 27 26 26
47 48 47 44 43 43 42 41 40 39 37 37 36 36 35 34 34 33 33 33 32 32 31 31 30 30 29 29 29 29 29 29 30 30 30 30 30 30 30 30 30 29 29 28
49 49 49 48 46 45 44 44 43 41 40 39 38 37 37 37 36 36 35 35 35 34 34 33 33 32 31 31 31 31 31 31 32 32 32 32 32 31 31 32 32 31 31 30
50 49 49 50 49 48 47 46 45 44 43 42 40 40 39 39 38 38 37 37 37 36 35 35 34 34 33 33 33 33 33 33 33 34 34 34 34 34 34 34 33 33 33 32
51 50 50 50 50 49 48 48 47 46 45 44 43 43 42 41 40 40 39 39 38 38 37 37 36 36 36 36 36 36 35 35 36 36 36 36 36 36 36 36 35 34 34 33
49 49 49 49 49 49 49 48 47 46 46 45 45 44 44 43 42 42 41 40 40 39 39 39 38 38 38 38 38 38 38 38 38 38 38 38 38 38 38 37 37 36 35 35
47 47 47 48 48 48 48 48 47 47 46 46 46 46 46 45 45 44 43 43 42 42 41 41 41 40 40 40 40 40 40 40 40 40 40 40 40 39 39 39 38 37 37 37
47 47 47 47 46 47 48 48 48 47 47 47 47 47 47 47 47 47 46 46 45 44 44 43 43 42 42 42 42 42 42 42 42 42 42 42 41 41 41 40 40 39 39 39
45 46 46 47 47 46 46 47 48 48 48 48 48 48 49 49 49 48 48 48 47 46 46 45 45 44 44 44 44 44 44 44 44 44 43 43 43 43 42 41 41 41 40 40
43 44 45 46 46 46 46 46 47 48 48 48 48 48 49 50 50 50 50 49 49 48 47 47 46 46 46 46 46 46 46 45 45 45 45 44 44 44 43 42 42 42 42 41
42 43 44 45 46 46 47 48 47 48 48 49 49 49 50 50 51 51 50 50 50 49 49 48 48 47 47 47 47 47 47 47 47 46 46 45 45 44 43 43 42 42 42 42
42 42 43 44 45 45 46 47 47 48 48 48 49 50 50 50 50 51 50 50 50 50 50 50 49 49 48 48 48 47 47 47 46 46 45 44 44 43 43 42 42 42 43 43
40 40 41 42 43 43 44 45 45 46 46 47 47 48 49 49 50 50 50 50 49 49 49 49 49 48 48 48 48 47 47 46 45 45 44 44 43 43 42 42 42 43 43 43
39 39 39 39 40 41 42 43 43 44 45 46 47 47 47 47 47 48 48 47 47 47 47 46 46 47 47 46 46 46 45 45 45 44 43 43 43 42 43 43 43 43 43 43
Wind_Direction
254 253 251 247 247 246 244 241 235 226 225 226 225 226 231 236 248 268 293 312 326 336 344 349 352 355 358 1 3 4 5 5 7 8 9 10 11 12 13 14 15 15 15 16
253 253 252 248 248 246 242 238 232 226 224 227 227 231 234 240 250 266 285 301 314 325 334 341 346 350 353 357 359 0 1 2 2 3 5 7 7 7 8 9 10 11 11 12
255 254 254 249 247 245 242 239 235 230 228 228 230 234 238 245 253 265 280 292 304 315 323 330 337 343 347 350 353 355 356 358 359 359 360 1 1 2 2 3 4 6 7 7
260 257 256 252 249 247 244 240 238 234 233 233 235 238 242 248 255 266 276 286 297 306 314 321 327 333 339 343 346 348 351 353 355 355 355 355 355 355 355 356 357 357 359 360
262 261 257 252 251 248 244 241 240 237 237 239 240 242 246 251 258 265 273 282 291 298 304 311 318 325 331 335 339 341 344 347 349 351 351 350 350 349 348 348 349 349 349 350
262 261 256 250 250 250 247 245 243 242 241 242 243 245 248 253 259 265 271 279 286 292 298 304 310 317 323 328 332 336 338 341 342 344 345 345 345 344 342 342 342 341 341 340
260 259 254 249 250 251 250 246 246 247 246 245 246 248 251 255 260 265 270 275 281 287 292 298 303 308 314 320 325 329 332 335 337 338 339 339 340 339 338 337 336 335 334 332
259 258 254 250 250 250 251 250 250 249 248 248 250 252 254 258 261 264 268 272 278 283 287 292 297 302 306 312 317 322 326 329 331 332 333 334 335 335 333 331 329 328 328 326
258 258 255 252 251 250 251 251 251 251 250 251 253 254 256 259 261 263 266 269 274 278 283 287 291 296 301 307 311 315 320 323 325 327 328 329 331 331 330 328 325 323 323 322
257 256 254 254 252 251 251 251 251 251 251 252 253 255 257 259 261 263 265 267 270 274 278 282 287 292 297 302 307 310 314 317 320 322 323 324 326 327 326 324 322 320 318 317
257 255 253 252 252 251 251 251 251 251 251 252 254 255 257 259 260 262 264 265 268 271 275 279 284 288 293 297 302 306 309 312 315 317 319 320 321 322 322 320 318 317 314 312
257 255 253 250 250 251 252 252 252 252 251 252 253 254 255 257 258 260 262 264 266 269 272 276 281 285 289 293 297 301 304 308 311 313 314 316 316 317 317 316 315 313 311 309
256 254 253 252 250 251 252 252 252 252 251 251 252 253 254 255 256 258 260 263 265 268 271 274 278 282 285 289 293 296 300 303 306 308 310 312 313 312 312 312 311 310 309 307
256 255 254 253 251 250 250 250 250 251 251 252 252 253 254 255 256 258 260 262 264 266 269 273 276 279 283 286 289 292 295 298 301 304 305 307 308 309 308 308 308 307 306 305
255 255 255 253 252 251 251 250 250 250 251 251 252 253 254 255 256 257 259 261 263 265 268 271 274 277 280 283 286 289 292 295 297 300 302 303 304 305 305 305 305 304 303 301
255 255 255 254 253 252 251 251 251 250 250 251 252 253 253 254 255 257 259 260 262 264 267 269 272 275 278 281 284 287 289 292 294 297 299 300 301 302 302 303 302 301 300 299
255 254 254 254 253 252 252 251 251 250 250 251 252 252 253 254 255 256 258 260 261 263 265 268 270 273 276 279 281 284 287 290 292 295 296 298 299 299 300 300 300 299 298 297
255 254 253 253 252 252 251 251 251 250 250 250 251 252 252 253 255 256 258 259 261 262 264 267 269 272 274 277 280 283 285 288 290 292 294 295 296 298 298 299 298 296 296 295
255 254 253 252 252 252 251 250 250 250 250 250 250 251 252 253 254 256 257 259 260 262 264 266 268 271 273 276 278 281 283 286 288 290 291 293 294 296 297 297 296 295 293 293
253 253 253 252 251 251 251 250 250 249 249 249 250 250 251 252 254 255 256 258 259 261 263 266 268 271 273 275 278 280 282 284 286 288 289 291 292 294 295 295 294 293 292 292
253 252 251 251 250 250 250 249 249 249 248 248 249 250 250 251 252 254 256 257 259 260 262 265 267 270 272 274 277 279 281 283 285 286 288 289 291 292 293 293 293 292 292 291
253 251 250 250 249 249 249 248 247 247 248 248 248 249 250 250 251 253 255 256 258 261 263 265 267 269 272 274 276 277 279 281 283 285 287 288 289 290 291 291 291 291 291 291
252 251 251 250 249 248 248 247 247 246 246 247 248 249 250 251 252 253 254 256 258 260 262 265 267 269 271 273 274 276 278 280 282 284 285 287 288 289 290 290 290 290 290 291
252 252 252 251 250 250 249 248 248 247 247 247 248 248 250 251 253 254 256 258 259 260 262 264 266 268 270 272 273 275 277 279 281 283 284 286 287 288 289 289 290 290 290 291
254 253 252 250 250 249 249 249 249 249 249 250 250 250 250 252 253 255 256 258 259 261 262 264 265 267 269 271 273 275 276 278 280 282 284 285 286 287 287 288 289 290 290 291
256 254 253 251 250 250 249 249 249 249 249 249 250 251 252 253 254 256 257 258 259 260 262 263 265 266 268 270 272 273 275 277 279 281 283 284 286 286 287 288 289 290 290 290
258 257 255 253 252 251 250 249 248 249 250 250 250 251 252 254 255 256 257 258 259 260 261 262 264 266 268 270 271 273 275 276 278 280 282 284 285 286 287 287 288 289 290 290
Height
5818 5818 5819 5819 5820 5820 5821 5822 5823 5824 5824 5825 5825 5826 5826 5827 5827 5827 5826 5826 5825 5823 5822 5820 5818 5816 5814 5811 5809 5806 5803 5800 5796 5793 5789 5786 5783 5779 5776 5772 5769 5766 5763 5760
5815 5815 5816 5817 5818 5818 5818 5819 5820 5821 5822 5823 5823 5824 5824 5825 5825 5825 5824 5824 5823 5822 5820 5819 5817 5815 5813 5811 5808 5805 5802 5799 5796 5793 5790 5786 5783 5780 5776 5773 5770 5767 5764 5761
5813 5812 5813 5815 5815 5815 5815 5817 5818 5819 5820 5820 5821 5821 5822 5822 5822 5822 5822 5822 5821 5820 5818 5817 5815 5814 5812 5809 5807 5804 5802 5799 5796 5792 5789 5786 5783 5780 5777 5773 5770 5767 5764 5761
5809 5810 5811 5814 5812 5812 5813 5814 5815 5816 5817 5817 5818 5819 5819 5820 5820 5820 5819 5819 5818 5817 5816 5815 5813 5812 5810 5808 5806 5803 5800 5797 5794 5791 5788 5785 5782 5779 5776 5773 5770 5767 5764 5761
5806 5806 5807 5810 5808 5808 5810 5811 5812 5813 5813 5814 5815 5816 5816 5817 5817 5817 5816 5816 5815 5814 5813 5812 5811 5809 5808 5806 5804 5801 5799 5796 5793 5790 5787 5784 5781 5778 5775 5772 5769 5766 5763 5760
5802 5802 5804 5807 5805 5805 5807 5808 5808 5809 5810 5810 5811 5812 5813 5813 5813 5813 5813 5812 5812 5811 5810 5809 5808 5806 5805 5803 5801 5799 5796 5794 5791 5788 5785 5782 5779 5776 5773 5770 5767 5764 5762 5759
5797 5797 5800 5802 5801 5802 5804 5805 5804 5804 5805 5806 5807 5808 5809 5809 5809 5809 5809 5809 5808 5807 5806 5806 5804 5803 5802 5800 5798 5796 5793 5791 5788 5785 5783 5780 5777 5774 5771 5768 5765 5762 5760 5757
5792 5792 5797 5796 5796 5797 5798 5798 5799 5799 5800 5801 5802 5803 5804 5804 5804 5804 5804 5804 5804 5803 5802 5802 5801 5799 5798 5796 5795 5793 5790 5788 5785 5782 5779 5777 5774 5771 5768 5765 5762 5759 5757 5754
5786 5789 5789 5789 5790 5790 5791 5792 5793 5794 5795 5796 5797 5797 5798 5799 5799 5799 5799 5799 5799 5798 5798 5797 5796 5795 5794 5792 5790 5788 5786 5784 5781 5778 5776 5773 5770 5767 5764 5761 5759 5756 5753 5751
5778 5781 5781 5782 5782 5783 5784 5785 5786 5787 5788 5789 5790 5791 5792 5792 5793 5793 5793 5793 5793 5793 5792 5792 5791 5790 5789 5787 5785 5783 5781 5779 5777 5774 5771 5769 5766 5763 5760 5757 5754 5752 5749 5747
5769 5772 5772 5773 5774 5774 5775 5776 5778 5779 5780 5781 5783 5784 5785 5785 5786 5786 5787 5787 5787 5787 5786 5786 5785 5784 5783 5781 5780 5778 5776 5774 5772 5769 5766 5764 5761 5758 5755 5753 5750 5747 5744 5742
5759 5762 5761 5763 5764 5765 5766 5768 5769 5770 5772 5773 5774 5776 5777 5777 5778 5779 5779 5780 5780 5780 5779 5779 5778 5778 5776 5775 5774 5772 5770 5768 5766 5763 5761 5758 5756 5753 5750 5747 5745 5742 5739 5736
5747 5748 5749 5752 5754 5755 5756 5757 5759 5760 5762 5763 5765 5766 5768 5769 5770 5770 5771 5772 5772 5772 5772 5772 5771 5770 5769 5768 5767 5765 5764 5762 5759 5757 5755 5752 5749 5747 5744 5742 5739 5736 5733 5731
5733 5734 5736 5740 5741 5743 5744 5746 5748 5750 5751 5753 5755 5756 5758 5759 5760 5761 5762 5763 5763 5763 5764 5763 5763 5763 5762 5761 5760 5758 5756 5755 5752 5750 5748 5745 5743 5740 5737 5734 5732 5729 5726 5724
5719 5720 5722 5726 5728 5730 5732 5734 5736 5738 5740 5742 5744 5746 5747 5749 5750 5751 5752 5753 5753 5754 5754 5754 5754 5754 5753 5752 5751 5750 5748 5747 5745 5743 5740 5738 5735 5732 5729 5727 5724 5721 5719 5716
5704 5706 5708 5711 5714 5717 5719 5721 5723 5726 5728 5730 5732 5734 5736 5737 5739 5740 5741 5742 5743 5744 5744 5744 5744 5744 5744 5743 5742 5741 5740 5738 5736 5734 5732 5729 5727 5724 5721 5719 5716 5713 5710 5708
5688 5690 5692 5695 5698 5702 5704 5707 5710 5713 5715 5718 5720 5722 5723 5725 5727 5728 5730 5731 5732 5733 5733 5734 5734 5734 5734 5733 5732 5731 5730 5728 5727 5725 5722 5720 5717 5715 5712 5710 5707 5704 5701 5698
5671 5673 5676 5679 5682 5686 5689 5692 5695 5698 5701 5704 5706 5708 5711 5713 5715 5716 5718 5719 5720 5721 5722 5723 5723 5723 5723 5723 5722 5721 5720 5718 5716 5714 5712 5710 5707 5705 5702 5700 5697 5694 5691 5689
5654 5657 5660 5663 5666 5670 5673 5677 5680 5683 5686 5689 5692 5695 5697 5700 5701 5703 5705 5707 5708 5710 5710 5711 5712 5712 5712 5711 5711 5710 5709 5707 5705 5704 5701 5699 5697 5694 5692 5689 5686 5683 5681 5679
5639 5642 5644 5647 5650 5654 5657 5661 5664 5668 5671 5675 5678 5681 5683 5686 5688 5690 5692 5694 5695 5697 5698 5699 5699 5700 5700 5699 5699 5698 5697 5695 5694 5692 5690 5688 5685 5683 5680 5678 5675 5672 5670 5667
5623 5626 5629 5632 5635 5638 5642 5646 5649 5653 5656 5660 5663 5666 5669 5672 5674 5676 5678 5680 5682 5683 5685 5686 5686 5687 5687 5687 5686 5685 5684 5683 5681 5680 5678 5676 5674 5671 5669 5666 5663 5661 5658 5656
5608 5611 5614 5617 5620 5624 5627 5630 5634 5638 5641 5644 5648 5651 5654 5657 5659 5662 5664 5666 5667 5669 5671 5672 5673 5674 5674 5674 5673 5673 5672 5670 5669 5667 5665 5663 5661 5659 5656 5654 5651 5649 5646 5643
5594 5596 5599 5602 5605 5608 5612 5615 5619 5622 5626 5629 5633 5636 5639 5642 5644 5647 5649 5651 5653 5655 5657 5658 5659 5660 5660 5660 5659 5659 5658 5657 5655 5654 5652 5650 5648 5646 5643 5641 5638 5636 5633 5631
5580 5582 5585 5588 5591 5594 5597 5601 5604 5607 5611 5614 5618 5621 5624 5627 5629 5632 5634 5636 5639 5641 5642 5644 5645 5645 5646 5646 5645 5645 5644 5643 5642 5640 5639 5637 5635 5633 5630 5628 5626 5623 5621 5618
5566 5568 5571 5574 5577 5580 5583 5586 5589 5593 5596 5599 5603 5606 5609 5612 5615 5617 5620 5622 5624 5626 5627 5629 5630 5631 5631 5631 5631 5631 5630 5629 5628 5627 5625 5623 5622 5619 5617 5615 5613 5610 5608 5605
5553 5555 5558 5560 5563 5566 5569 5572 5575 5579 5582 5585 5588 5591 5594 5597 5600 5602 5605 5607 5610 5611 5613 5614 5615 5616 5616 5617 5617 5616 5616 5615 5614 5613 5612 5610 5608 5606 5604 5602 5600 5597 5595 5592
5540 5542 5544 5547 5549 5552 5556 5559 5562 5565 5568 5571 5574 5577 5580 5582 5585 5588 5590 5593 5595 5596 5598 5599 5601 5601 5602 5602 5602 5602 5602 5601 5601 5600 5598 5597 5595 5594 5592 5589 5587 5584 5582 5579